Location: �quirre
(50.4736°N, 2.2351°E)
Time: 06:25:07
(UTC+00:00)

Cosmos 1271 Rocket - Pass Details

Date: 07 August 2020
Orbit: 499 x 545 km, 81.2° (Epoch: 23 September)

Event Time Altitude Azimuth Distance (km) Brightness Sun altitude
Rises 00:38:05 0° 336° (NNW) 2,609 7.2 -22.6°
Reaches altitude 10° 00:40:30 10° 322° (NW) 1,723 5.9 -22.5°
Enters shadow 00:42:53 22° 284° (WNW) 1,154 4.4 -22.4°
